[[[{"header":{"parameterUnit":"kt","parameterCategory":2,"dx":1,"dy":1,"la1":30.253999710083008,"la2":30.299108505249023,"lo1":-89.0895004272461,"lo2":-89.04439544677734,"nx":28,"ny":28,"refTime":"2022-09-20T09:00:00:Z","depth":0,"parameterNumber":1,"parameterNumberName":"U-component_of_WINDS"},"data":[1.7244,1.7279,1.7284,1.7324,1.7335,1.7364,1.7375,1.739,1.7402,1.7435,1.7455,1.7462,1.7476,1.7499,1.7519,1.7521,1.7529,1.7537,1.7538,1.7499,1.7493,1.7488,1.748,1.7539,1.7539,1.7578,1.7579,1.7579,1.7212,1.7223,1.7247,1.7273,1.7293,1.7287,1.7307,1.7323,1.7348,1.7365,1.7385,1.7414,1.7437,1.7448,1.747,1.7485,1.7483,1.749,1.7488,1.749,1.7448,1.744,1.7491,1.7491,1.7491,1.7491,1.7491,1.7491,1.7153,1.7175,1.7193,1.7219,1.7234,1.7251,1.7271,1.728,1.7303,1.7328,1.733,1.7358,1.7374,1.7404,1.7415,1.7435,1.7428,1.7437,1.7439,1.7441,1.7442,1.7382,1.744,1.744,1.744,1.7439,1.7439,0,1.7112,1.7115,1.7138,1.7163,1.7182,1.7202,1.7221,1.7233,1.724,1.7258,1.7285,1.7301,1.7331,1.7356,1.7378,1.7388,1.7382,1.7383,1.7389,1.7388,1.7384,1.7384,1.7314,1.7381,1.7381,1.738,1.738,1.738,1.7052,1.7077,1.7099,1.7115,1.7127,1.7153,1.7169,1.7173,1.719,1.7213,1.723,1.7256,1.7276,1.7317,1.7326,1.7349,1.7346,1.7371,1.735,1.7348,1.7344,1.7342,1.7344,1.7375,1.7375,1.7376,1.7376,0,1.7017,1.7026,1.7066,1.7086,1.7092,1.7117,1.7134,1.7155,1.7162,1.7191,1.7198,1.7209,1.7235,1.7241,1.7271,1.7273,1.7311,1.7309,1.7305,1.7304,1.7325,1.7323,1.7398,1.7407,1.7348,1.7349,1.7349,0,1.6968,1.7001,1.7012,1.7035,1.707,1.7075,1.711,1.7119,1.7135,1.7159,1.7155,1.7177,1.7182,1.7204,1.7207,1.7239,1.7246,1.7248,1.7248,1.7248,1.7247,1.7255,1.7251,1.7251,1.725,1.725,1.725,0,1.6911,1.6956,1.6994,1.7006,1.7031,1.7048,1.7059,1.7078,1.7093,1.7115,1.7125,1.7149,1.7162,1.718,1.7184,1.7169,1.7225,1.7205,1.7227,1.7227,1.7238,1.7237,1.7304,1.7249,1.7249,1.7249,1.7249,0,1.6873,1.6896,1.6951,1.6971,1.6983,1.7008,1.7032,1.7056,1.7075,1.7079,1.7096,1.7094,1.7125,1.7104,1.7145,1.7124,1.7137,1.7143,1.7145,1.7147,1.7123,1.7157,1.7222,1.7227,1.7149,1.7148,1.7148,0,1.6804,1.6862,1.6867,1.6918,1.6946,1.694,1.6967,1.6985,1.6993,1.7017,1.7025,1.7052,1.7038,1.7047,1.7067,1.7076,1.7103,1.7073,1.7103,1.7104,1.7096,1.7156,1.7163,1.7207,1.7137,1.7138,1.7139,0,1.6751,1.6784,1.6793,1.6806,1.6833,1.6856,1.6888,1.6917,1.6932,1.6953,1.6979,1.7018,1.7008,1.7024,1.7025,1.7046,1.7085,1.7033,1.7033,1.704,1.7133,1.714,1.7147,1.7081,1.7082,1.7083,1.7131,0,1.6687,1.6719,1.6745,1.6776,1.6795,1.6829,1.6838,1.6857,1.6856,1.6864,1.6903,1.6921,1.6949,1.696,1.696,1.7006,1.6999,1.6989,1.6968,1.7008,1.7024,1.703,1.6944,1.6944,1.6943,1.6943,0,0,1.6618,1.6664,1.6669,1.6702,1.6718,1.6713,1.6748,1.6763,1.6795,1.6806,1.6795,1.6852,1.6867,1.6913,1.6926,1.6938,1.6946,1.6933,1.6989,1.6995,1.7,1.7016,1.7023,1.6942,1.6942,1.6942,1.6941,0,1.6597,1.6615,1.6651,1.6667,1.6692,1.67,1.6708,1.6732,1.6739,1.6779,1.6772,1.6797,1.6844,1.6859,1.6873,1.6928,1.6921,1.6936,1.6962,1.6985,1.699,1.6996,1.7013,1.702,1.694,1.694,1.694,0,1.6545,1.6564,1.6583,1.6623,1.6639,1.6668,1.6649,1.6682,1.6703,1.6695,1.6734,1.6745,1.6767,1.6811,1.6831,1.6822,1.6897,1.6876,1.6879,1.6881,1.6903,1.691,1.6916,1.6834,1.6834,1.6833,0,0,1.6525,1.6556,1.6577,1.6619,1.663,1.6642,1.6659,1.6661,1.6682,1.669,1.6704,1.6724,1.6751,1.6768,1.6794,1.6842,1.6846,1.6862,1.6867,1.6871,1.6876,1.6899,1.6906,1.6832,1.6832,1.6832,0,0,1.6516,1.6543,1.6539,1.6589,1.661,1.6633,1.6658,1.6654,1.6678,1.6675,1.6679,1.6685,1.6726,1.6737,1.6716,1.6787,1.6766,1.6772,1.6778,1.6784,1.6789,1.6785,1.6698,0,0,0,0,0,1.6499,1.6539,1.6536,1.6546,1.6597,1.6635,1.6642,1.6646,1.6632,1.6651,1.6661,1.6654,1.6726,1.6707,1.6716,1.674,1.6812,1.6815,1.6819,1.6838,1.6845,1.685,0,0,0,0,0,0,1.6503,1.6515,1.6535,1.656,1.6571,1.6634,1.661,1.6612,1.663,1.6628,1.6652,1.6655,1.6659,1.6703,1.6711,1.6733,1.6695,1.6813,1.6816,1.6819,1.684,1.6846,1.685,0,0,0,0,0,1.6506,1.6515,1.6597,1.6559,1.6569,1.6585,1.6608,1.661,1.6624,1.6641,1.6643,1.6626,1.6659,1.6666,1.6707,1.6729,1.669,1.6693,1.6815,1.6818,1.682,1.6843,0,0,0,0,0,0,1.6508,1.6517,1.6599,1.6602,1.6545,1.6582,1.6588,1.6608,1.6636,1.6639,1.6614,1.6613,1.666,1.6666,1.6671,1.6728,1.6685,1.6688,1.669,1.6817,1.6819,1.682,0,0,0,0,0,0,1.6512,1.652,1.66,1.6582,1.6583,1.6578,1.6584,1.662,1.6636,1.6608,1.6607,1.6613,1.6652,1.6665,1.6669,1.6725,1.6682,1.6685,1.6687,1.6688,1.6818,1.682,0,0,0,0,0,0,1.6515,1.6522,1.6581,1.6582,1.6583,1.6618,1.661,1.6662,1.6622,1.6606,1.6618,1.6616,1.6651,1.6656,1.6668,1.6722,1.6724,1.6682,1.6684,1.6685,1.6686,0,0,0,0,0,0,0,1.6518,1.6471,1.658,1.6582,1.6583,1.6631,1.6632,1.6633,1.6621,1.662,1.6618,1.6617,1.6665,1.6668,1.6671,1.672,0,0,1.6681,1.6683,0,0,0,0,0,0,0,0,1.6468,1.6471,1.658,1.6581,1.6582,1.6631,1.6632,1.6632,1.6621,1.662,1.6619,1.6618,1.6666,1.6668,1.6671,0,0,0,0,0,0,0,0,0,0,0,0,0,0,0,1.658,1.6581,0,1.6631,1.6632,1.6632,1.6621,1.662,1.6619,1.6618,1.6667,1.6669,1.6671,0,0,0,0,0,0,0,0,0,0,0,0,0,0,0,0,0,0,0,0,0,0,0,0,0,0,0,0,0,0,0,0,0,0,0,0,0,0,0,0,0,0,0,0,0,0,0,0,0,0,0,0,0,0,0,0,0,0,0,0,0,0,0,0,0,0,0,0,0]}],[{"header":{"parameterUnit":"kt","parameterCategory":2,"dx":1,"dy":1,"la1":30.253999710083008,"la2":30.299108505249023,"lo1":-89.0895004272461,"lo2":-89.04439544677734,"nx":28,"ny":28,"refTime":"2022-09-20T09:00:00:Z","depth":0,"parameterNumber":2,"parameterNumberName":"V-component_of_WINDS"},"data":[3.2261,3.2271,3.2259,3.2264,3.2254,3.2255,3.2251,3.2245,3.2237,3.2236,3.2233,3.2221,3.2207,3.22,3.2195,3.219,3.2188,3.22,3.2191,3.2149,3.2142,3.2136,3.2132,3.22,3.2201,3.2236,3.2236,3.2236,3.2229,3.2219,3.2219,3.221,3.2209,3.219,3.2181,3.2181,3.2183,3.2173,3.217,3.2168,3.2165,3.2146,3.214,3.2143,3.2133,3.2142,3.2141,3.2138,3.2093,3.209,3.2151,3.2151,3.2151,3.2151,3.2151,3.2151,3.2167,3.2174,3.2161,3.2161,3.2153,3.2147,3.2151,3.2137,3.2136,3.213,3.2115,3.2116,3.2103,3.209,3.2083,3.2082,3.2069,3.2075,3.2076,3.2078,3.208,3.2027,3.2081,3.2081,3.2081,3.2081,3.208,0,3.2117,3.2106,3.2105,3.2101,3.21,3.2095,3.2089,3.2091,3.2063,3.2064,3.2063,3.206,3.2055,3.2052,3.2044,3.2035,3.2013,3.201,3.2014,3.202,3.2026,3.202,3.1945,3.2009,3.2008,3.2007,3.2007,3.2007,3.2051,3.2062,3.2043,3.2044,3.2038,3.204,3.2039,3.2014,3.2013,3.2001,3.2008,3.2006,3.2002,3.2003,3.1985,3.1981,3.197,3.1995,3.1969,3.1974,3.1967,3.1966,3.1966,3.2,3.2001,3.2001,3.2002,0,3.2015,3.1995,3.2007,3.1988,3.1983,3.1995,3.1978,3.1984,3.1969,3.1975,3.1975,3.1952,3.1951,3.1929,3.1925,3.1913,3.1929,3.192,3.1933,3.1929,3.1947,3.1945,3.2016,3.2023,3.1954,3.1955,3.1955,0,3.195,3.1965,3.1934,3.1942,3.1958,3.1932,3.1948,3.1937,3.1926,3.193,3.1904,3.1908,3.1879,3.1881,3.1863,3.1873,3.1873,3.1864,3.1858,3.1865,3.1866,3.1862,3.1858,3.1849,3.1849,3.1849,3.1849,0,3.1894,3.1896,3.1909,3.1906,3.1887,3.1894,3.1886,3.1874,3.1873,3.1869,3.1867,3.1864,3.1862,3.1859,3.1836,3.1819,3.1849,3.1821,3.1839,3.1839,3.1845,3.1845,3.1915,3.1848,3.1848,3.1848,3.1848,0,3.1838,3.1835,3.1858,3.1841,3.1842,3.1852,3.1846,3.1849,3.1839,3.1829,3.1825,3.1804,3.1812,3.1785,3.1796,3.1779,3.1778,3.1771,3.1772,3.1769,3.1739,3.1779,3.185,3.1855,3.1769,3.1768,3.1768,0,3.1778,3.1797,3.1775,3.1798,3.1803,3.1772,3.1781,3.1773,3.1761,3.1763,3.1748,3.1751,3.1727,3.1724,3.1733,3.1718,3.1739,3.1715,3.1715,3.1715,3.1716,3.1782,3.1797,3.1837,3.1759,3.176,3.1761,0,3.1728,3.1706,3.1712,3.1706,3.1693,3.1697,3.1709,3.1707,3.1709,3.1704,3.1711,3.1716,3.1697,3.1694,3.1677,3.1687,3.1724,3.1665,3.1664,3.1674,3.1754,3.1768,3.1775,3.171,3.1711,3.1712,3.1754,0,3.1644,3.1652,3.1667,3.1659,3.1659,3.1673,3.165,3.1654,3.1637,3.1623,3.1636,3.1624,3.1621,3.1624,3.1608,3.1639,3.1629,3.161,3.1581,3.1625,3.1638,3.1643,3.1563,3.1562,3.1561,3.156,0,0,3.159,3.16,3.1577,3.1588,3.1586,3.1554,3.157,3.1565,3.1557,3.1556,3.154,3.1545,3.1536,3.1553,3.1565,3.1565,3.1567,3.1554,3.1604,3.1609,3.1614,3.1629,3.1635,3.1559,3.1559,3.1558,3.1558,0,3.1554,3.1548,3.1565,3.1559,3.1549,3.1534,3.1538,3.1523,3.1515,3.1528,3.15,3.1505,3.151,3.1504,3.1501,3.1551,3.1529,3.1553,3.1586,3.1597,3.1603,3.1609,3.1624,3.163,3.1556,3.1556,3.1556,0,3.15,3.1489,3.1495,3.1492,3.1486,3.1493,3.1457,3.1467,3.1471,3.1435,3.1448,3.1439,3.1429,3.1449,3.1458,3.1443,3.1495,3.1476,3.148,3.148,3.1489,3.1497,3.1504,3.1416,3.1416,3.1415,0,0,3.1472,3.1479,3.1459,3.1483,3.1481,3.1459,3.1461,3.1444,3.1436,3.1433,3.1421,3.1414,3.1416,3.1418,3.142,3.1446,3.1441,3.1459,3.1466,3.1472,3.1474,3.1485,3.1493,3.1414,3.1414,3.1414,0,0,3.1458,3.1436,3.142,3.1445,3.1439,3.1421,3.1435,3.1416,3.1415,3.141,3.1382,3.1379,3.1398,3.139,3.1373,3.1408,3.138,3.1384,3.1413,3.1421,3.1427,3.1428,3.1334,0,0,0,0,0,3.1409,3.1438,3.1425,3.1425,3.1422,3.1428,3.1428,3.1405,3.1385,3.1398,3.1384,3.1361,3.1375,3.1359,3.1359,3.1379,3.1394,3.1398,3.1401,3.1444,3.1453,3.146,0,0,0,0,0,0,3.141,3.1411,3.1424,3.1407,3.1406,3.1427,3.1388,3.1383,3.1384,3.1379,3.1364,3.136,3.1341,3.1356,3.1358,3.1376,3.1333,3.1396,3.1399,3.1401,3.1447,3.1454,3.146,0,0,0,0,0,3.141,3.141,3.1411,3.1407,3.1406,3.1383,3.1387,3.1382,3.1382,3.1361,3.1356,3.1365,3.1342,3.1341,3.1357,3.1376,3.1332,3.1333,3.1398,3.14,3.1402,3.145,0,0,0,0,0,0,3.141,3.1406,3.141,3.1409,3.1394,3.1381,3.1378,3.1382,3.1364,3.136,3.1361,3.1357,3.1343,3.1343,3.1342,3.1378,3.1331,3.1332,3.1332,3.1399,3.1401,3.1403,0,0,0,0,0,0,3.1405,3.1405,3.141,3.1395,3.1392,3.138,3.1377,3.1388,3.1364,3.1364,3.1361,3.136,3.1343,3.1344,3.1343,3.136,3.1331,3.1331,3.1332,3.1332,3.1401,3.1402,0,0,0,0,0,0,3.1405,3.1405,3.1395,3.1393,3.139,3.1376,3.1388,3.1386,3.1352,3.1366,3.1348,3.1347,3.1345,3.1344,3.1344,3.1361,3.1361,3.1331,3.1331,3.1331,3.1332,0,0,0,0,0,0,0,3.1404,3.141,3.1417,3.1391,3.1389,3.1399,3.1398,3.1398,3.1352,3.135,3.1349,3.1347,3.1328,3.1329,3.1329,3.1362,0,0,3.1331,3.1331,0,0,0,0,0,0,0,0,3.141,3.141,3.1417,3.1417,3.1417,3.1399,3.1398,3.1398,3.1351,3.135,3.1349,3.1348,3.1328,3.1329,3.1329,0,0,0,0,0,0,0,0,0,0,0,0,0,0,0,3.1417,3.1417,0,3.1399,3.1398,3.1398,3.1351,3.135,3.1349,3.1348,3.1328,3.1329,3.1329,0,0,0,0,0,0,0,0,0,0,0,0,0,0,0,0,0,0,0,0,0,0,0,0,0,0,0,0,0,0,0,0,0,0,0,0,0,0,0,0,0,0,0,0,0,0,0,0,0,0,0,0,0,0,0,0,0,0,0,0,0,0,0,0,0,0,0,0,0]}]]]